QIANFAN-18 (60396 NORAD) Tracking and Keplerian Element Data

This shows tracking and keplerian element data for the satellite.

Feedback or suggestion? Click here.




ElementValue
Catalog60396
NameQIANFAN-18
Epoch Orbit964
Epoch Day286.8725543
Epoch Year2024
RAAN343.4032
Inclination88.9938
Eccentricity0.001526
Argument of Perigee13.42
Mean Anonmoly346.7396
Mean Motion14.25276423
Decay Rate2.086E-05
L11 60396U 24140T 24286.87255430 .00002086 00000+0 88015-3 0 9991
L22 60396 88.9938 343.4032 0015260 13.4200 346.7396 14.25276423 9647



Live tracking and technical data element details for QIANFAN-18 (NORAD 60396). QIANFAN-18 can be tracked NOW for your location showing map with azimuth and elevation plus other details from your city location.







IsCatalogInMostPopularTable: catalog: 60396, numindb: 6
Update: records affected: 1



GetName: 60396 QIANFAN-18

Hit Count: updated at: Tue, 03 Dec 2024 02:08:27 GMT